Location: Unspecified
(0.0000°N, 0.0000°E)
Time: 05:26:29
(UTC+00:00)

CUTE 1.7 + AOD 2 - Pass Details

Date: 24 May 2026
Orbit: 531 x 545 km, 97.8° (Epoch: 11 June)

Event Time Altitude Azimuth Distance (km) Brightness Sun altitude
Rises 05:06:22 0° 334° (NNW) 2,661 ? -11.8°
Reaches altitude 10° 05:10:09 10° 295° (WNW) 1,780 ? -10.9°
Maximum altitude 05:11:01 11° 282° (WNW) 1,741 ? -10.7°
Enters shadow 05:11:05 11° 281° (W) 1,741 ? -10.7°
